CW8484 Weather Reports


time (UTC)temp
F
wind
direction
speed
knots
gust
knots
rain 1hr
in
rain 24hr
in
rain mn
in
humidity
%
barometer
mb
20260504110402 45 167 4.3 12.2 0.00 0.00 0.00 84 1005.0
20260504100403 43 181 3.5 10.4 0.00 0.00 0.00 85 1005.4
20260504080403 43 205 1.7 7.0 0.00 0.00 0.00 74 1005.9
20260504050403 42 167 3.5 10.4 0.00 0.00 0.00 62 1006.3
20260504045403 41 178 1.7 7.8 0.00 0.00 0.00 64 1006.5
20260504044403 41 179 3.5 8.7 0.00 0.00 0.00 65 1006.6
20260504043402 40 176 3.5 6.1 0.00 0.00 0.00 65 1006.6
20260504042403 40 181 3.5 7.0 0.00 0.00 0.00 67 1006.7
20260504041403 38 170 2.6 6.1 0.00 0.00 0.00 71 1006.7
20260504040402 37 181 1.7 4.3 0.00 0.00 0.00 73 1006.7
20260504035424 36 180 2.6 4.3 0.00 0.00 0.00 75 1006.7
20260504034403 36 179 1.7 4.3 0.00 0.00 0.00 74 1006.7
20260504033404 36 182 2.6 6.1 0.00 0.00 0.00 73 1006.7
20260504032404 36 175 0.9 4.3 0.00 0.00 0.00 73 1006.7
20260504031404 37 177 0.9 4.3 0.00 0.00 0.00 73 1006.8
20260504030404 37 179 1.7 4.3 0.00 0.00 0.00 71 1006.8
20260504025426 38 177 0.0 4.3 0.00 0.00 0.00 70 1006.9
20260504024403 38 187 0.0 4.3 0.00 0.00 0.00 68 1006.9
20260504023404 38 189 1.7 7.0 0.00 0.00 0.00 69 1007.0
20260504022425 37 182 1.7 7.0 0.00 0.00 0.00 70 1007.1
20260504021405 37 181 2.6 4.3 0.00 0.00 0.00 71 1007.1
20260504020425 37 182 0.0 4.3 0.00 0.00 0.00 72 1007.0
20260504015404 37 181 2.6 3.5 0.00 0.00 0.00 72 1007.1
20260504014404 37 181 1.7 6.1 0.00 0.01 0.00 71 1007.1
20260504013405 37 181 1.7 3.5 0.00 0.01 0.00 72 1007.1
20260504012425 37 181 1.7 4.3 0.00 0.01 0.00 72 1007.1
20260504011404 38 181 0.0 3.5 0.00 0.01 0.00 71 1007.0
20260504010403 38 181 0.0 3.5 0.00 0.02 0.00 69 1007.0
20260504005404 39 181 0.0 0.0 0.00 0.02 0.00 68 1006.9
20260504004403 39 180 0.0 2.6 0.00 0.02 0.00 66 1006.8
20260504003404 40 180 0.9 2.6 0.00 0.03 0.00 65 1006.8
20260504002404 41 180 0.9 2.6 0.00 0.03 0.00 63 1006.8
20260504001404 43 180 0.9 3.5 0.00 0.03 0.00 61 1006.7
20260504000425 45 181 0.0 0.0 0.00 0.03 0.00 58 1006.7
20260503235403 46 181 0.0 3.5 0.00 0.03 0.00 56 1006.6
20260503234404 48 180 0.0 4.3 0.00 0.03 0.00 51 1006.6
20260503233403 49 180 2.6 4.3 0.00 0.03 0.00 50 1006.5
20260503232425 49 183 1.7 4.3 0.00 0.03 0.00 50 1006.5
20260503231404 48 191 0.0 2.6 0.00 0.03 0.00 52 1006.5
20260503230403 48 191 0.0 4.3 0.00 0.03 0.00 52 1006.5
20260503225404 48 270 0.0 2.6 0.00 0.04 0.00 52 1006.6
20260503224425 48 270 0.0 3.5 0.00 0.04 0.00 50 1006.5
20260503223404 48 274 0.0 3.5 0.00 0.04 0.00 49 1006.5
20260503222404 49 275 0.0 3.5 0.00 0.04 0.00 48 1006.5
20260503221403 49 301 0.0 3.5 0.00 0.04 0.00 50 1006.5
20260503220404 49 302 1.7 4.3 0.00 0.04 0.00 48 1006.5
20260503215403 49 303 0.0 4.3 0.00 0.04 0.00 48 1006.5
20260503214404 49 266 0.0 3.5 0.00 0.04 0.00 50 1006.6
20260503213424 49 266 0.9 6.1 0.00 0.04 0.00 48 1006.6
20260503212404 49 332 0.9 7.0 0.00 0.04 0.00 50 1006.6
20260503211404 49 269 0.0 5.2 0.00 0.04 0.00 48 1006.5
20260503210445 49 291 1.7 5.2 0.00 0.04 0.00 48 1006.5
20260503205404 49 287 0.0 8.7 0.00 0.04 0.00 49 1006.5
20260503204403 50 292 2.6 7.0 0.00 0.04 0.00 47 1006.5
20260503203404 49 273 0.9 7.8 0.00 0.04 0.00 52 1006.6
20260503202424 48 263 3.5 7.0 0.00 0.04 0.00 49 1006.7
20260503201404 48 309 2.6 8.7 0.00 0.04 0.00 51 1006.8
20260503200404 47 231 2.6 11.3 0.00 0.04 0.00 52 1006.9
20260503195403 48 273 5.2 9.6 0.00 0.04 0.00 52 1007.0
20260503194404 47 253 1.7 7.0 0.00 0.04 0.00 55 1007.1
20260503193403 47 248 4.3 8.7 0.00 0.04 0.00 54 1007.3
20260503192403 47 272 2.6 12.2 0.00 0.04 0.00 53 1007.3
20260503191404 49 293 4.3 10.4 0.00 0.04 0.00 51 1007.3
20260503190403 50 310 2.6 11.3 0.00 0.04 0.00 52 1007.2
20260503185404 49 255 2.6 13.0 0.00 0.04 0.00 53 1007.4
20260503184403 47 272 4.3 9.6 0.00 0.04 0.00 54 1007.4
20260503183425 48 347 0.9 7.0 0.00 0.04 0.00 55 1007.4
20260503182404 47 256 2.6 8.7 0.00 0.04 0.00 56 1007.6
20260503181403 47 270 3.5 7.0 0.00 0.04 0.00 56 1007.6
20260503180404 47 306 1.7 9.6 0.00 0.04 0.00 55 1007.7
20260503175403 47 265 7.0 9.6 0.00 0.04 0.00 55 1007.8
20260503174404 47 274 2.6 8.7 0.00 0.04 0.00 56 1007.8
20260503173403 47 275 3.5 8.7 0.00 0.04 0.00 57 1007.8
20260503172424 46 297 3.5 9.6 0.00 0.04 0.00 56 1007.9
20260503171425 47 288 2.6 10.4 0.00 0.04 0.00 57 1007.9
20260503170404 46 253 5.2 11.3 0.00 0.04 0.00 56 1008.0
20260503150404 47 274 7.0 13.0 0.00 0.04 0.00 58 1008.8
20260503131403 42 290 0.9 9.6 0.00 0.04 0.00 82 1009.5
20260503130403 43 274 2.6 7.0 0.00 0.05 0.00 80 1009.5